Home > Weather > Ivalo > Past weeks

Flag for Finland Past Weather in Ivalo, Finland — Yesterday and Last 2 Weeks

Now
39 °F

Passing clouds.


Feels Like: 34 °F
Forecast: 36 / 49 °F
Wind: 8 mph from North

Location: Ivalo

Current Time: Aug 27, 2016 at 11:42:38 PM

Latest Report: Aug 27, 2016 at 11:20 PM


Visibility: N/A

Pressure: 29.71 "Hg

Humidity: 65%

Dew Point: 28 °F

Location of IvaloLocation

Past Weather in Ivalo — Graph

°F

Ivalo Temperature Yesterday

Maximum temperature yesterday: 59 °F (at 4:20 PM)
Minimum temperature yesterday: 41 °F (at 5:50 AM)
Average temperature yesterday: 50 °F

High & Low Weather Summary for the Past Weeks

 TemperatureHumidityPressure
High72 °F (Aug 20, 3:20 PM)100% (Aug 12, 10:20 PM)30.30 "Hg (Aug 12, 10:20 PM)
Low36 °F (Aug 25, 2:50 AM)44% (Aug 26, 2:50 PM)29.47 "Hg (Aug 27, 12:50 PM)
Average52 °F82%29.99 "Hg
* Reported Aug 12 10:20 PM — Aug 27 10:20 PM, Ivalo, Weather by CustomWeather, © 2016

Note: Actual official high and low records may vary slightly from our data, if they occured in-between our weather recording intervals... More about our weather records

Advertising

Ivalo Weather History for the Previous 24 Hours

Scroll right to see more
 ConditionsComfort  
Time TempWeatherWind HumidityBarometerVisibility
10:20 PM
Sat, Aug 27
39 °FOvercast.13 mph75%29.68 "HgN/A
9:50 PM41 °FOvercast.14 mph70%29.65 "HgN/A
9:20 PM39 °FPartly sunny.14 mph81%29.65 "HgN/A
8:50 PM39 °FSprinkles. Overcast.16 mph87%29.62 "HgN/A
8:20 PM41 °FLight rain. Overcast.16 mph81%29.59 "HgN/A
7:50 PM43 °FSprinkles. Partly sunny.15 mph81%29.59 "HgN/A
7:20 PM43 °FPartly sunny.18 mph76%29.56 "HgN/A
6:50 PM43 °FOvercast.10 mph87%29.56 "HgN/A
6:20 PM43 °FLight rain. Overcast.15 mph87%29.53 "HgN/A
5:50 PM43 °FLight rain. Overcast.14 mph87%29.53 "HgN/A
5:20 PM43 °FLight rain. Overcast.16 mph87%29.53 "HgN/A
4:50 PM43 °FLight rain. Overcast.17 mph87%29.50 "HgN/A
4:20 PM41 °FLight rain. Overcast.21 mph93%29.50 "HgN/A
3:50 PM43 °FLight rain. Overcast.20 mph87%29.47 "HgN/A
3:20 PM43 °FLight rain. Low clouds.18 mph93%29.47 "HgN/A
2:50 PM43 °FLight rain. Low clouds.17 mph93%29.47 "HgN/A
2:20 PM43 °FLight rain. Low clouds.16 mph93%29.47 "HgN/A
1:50 PM45 °FLight rain. Low clouds.13 mph93%29.47 "HgN/A
1:20 PM45 °FLight rain. Low clouds.12 mph93%29.47 "HgN/A
12:50 PM45 °FLight rain. Low clouds.13 mph93%29.47 "HgN/A
12:20 PM45 °FLight rain. Low clouds.12 mph93%29.50 "HgN/A
11:50 AM45 °FLight rain. Low clouds.10 mph93%29.50 "HgN/A
11:20 AM45 °FLight rain. Low clouds.10 mph93%29.50 "Hg5 mi
10:50 AM45 °FLight rain. Low clouds.10 mph93%29.53 "Hg5 mi
10:20 AM45 °FLow clouds.7 mph93%29.53 "HgN/A
9:50 AM45 °FLow clouds.12 mph93%29.56 "HgN/A
9:20 AM45 °FLow clouds.13 mph93%29.56 "HgN/A
8:50 AM43 °FLow clouds.12 mph100%29.59 "HgN/A
8:20 AM43 °FOvercast.10 mph100%29.59 "HgN/A
7:50 AM43 °FMostly cloudy.9 mph100%29.62 "HgN/A
7:20 AM43 °FOvercast.8 mph93%29.65 "HgN/A
6:50 AM43 °FSprinkles. Mostly cloudy.9 mph93%29.65 "HgN/A
6:20 AM43 °FRain. Mostly cloudy.13 mph93%29.65 "HgN/A
5:50 AM45 °FOvercast.8 mph87%29.68 "HgN/A
5:20 AM45 °FOvercast.8 mph87%29.71 "HgN/A
4:50 AM45 °FLight rain. Overcast.8 mph87%29.71 "HgN/A
4:20 AM45 °FOvercast.7 mph87%29.74 "HgN/A
3:50 AM45 °FPassing clouds.6 mph87%29.74 "HgN/A
3:20 AM45 °FClear.8 mph87%29.74 "Hg10 mi
2:50 AM45 °FPassing clouds.6 mph93%29.77 "HgN/A
2:20 AM46 °FPassing clouds.3 mph93%29.77 "HgN/A
1:50 AM46 °FClear.5 mph93%29.77 "Hg10 mi
1:20 AM46 °FClear.2 mph100%29.77 "Hg10 mi
12:50 AM48 °FLight rain. Overcast.3 mph100%29.80 "HgN/A
12:20 AM48 °FFog.No wind94%29.80 "Hg2 mi
11:50 PM
Fri, Aug 26
48 °FPassing clouds.No wind100%29.80 "HgN/A
11:20 PM48 °FPassing clouds.No wind100%29.83 "HgN/A
Weather by CustomWeather, © 2016

See weather overviewHow to use our weather pages